Location: Ulic
(40.7833°S, 175.8000°E)
Time: 14:23:33
(UTC+00:00)

Daily predictions for brighter satellites

Satellite Brightness Start Highest point End
(mag) Time Altitude Azimuth Time Altitude Azimuth Time Altitude Azimuth
CZ-4C R/B 4.4 15:30:09 31° ESE 15:30:09 31° ESE 15:33:49 10° SE
Centaur D-1A AC-31 4.1 16:12:28 15° NNE 16:12:28 15° NNE 16:15:19 10° NE
CENTAUR R/B 4.2 16:26:13 10° N 16:34:08 40° ENE 16:40:54 10° SE
BREEZE-M DEB (TANK) 3.7 16:39:46 72° ESE 16:39:46 72° ESE 16:52:42 10° ENE
CZ-3 Stage 3 3.8 16:57:41 16° NNE 16:57:41 16° NNE 16:59:59 10° ENE
Cosmos 2219 Rocket 3.5 17:07:22 28° N 17:07:22 28° N 17:10:00 10° N
Meteor 1-13 Rocket 4.5 17:00:18 10° N 17:06:13 74° E 17:12:15 10° SSE
Cosmos 1869 Rocket 4.5 17:06:01 42° SE 17:06:48 47° E 17:11:03 10° NNE
Cosmos 2237 Rocket 3.8 17:04:15 15° S 17:08:19 31° ESE 17:13:20 10° ENE
Cosmos 1356 Rocket 4.5 17:04:55 10° NNE 17:08:44 43° E 17:12:40 10° SSE
CZ-4C R/B 3.3 17:15:17 45° SW 17:15:17 45° SW 17:22:05 10° SSE
SMAP 4.1 17:12:34 10° NE 17:17:01 44° ESE 17:21:02 13° S
SL-19 R/B 4.1 17:13:17 10° N 17:19:00 67° WNW 17:19:09 67° W
COSMOS 2455 3.3 17:20:35 43° SSW 17:20:35 43° SSW 17:25:22 10° SSE
PSLV R/B 3.8 17:16:18 10° NNE 17:20:26 64° ESE 17:20:58 57° SE
Cosmos 2297 Rocket 2.7 17:17:21 10° N 17:22:55 61° ENE 17:28:33 10° SSE
Meteor 1-22 Rocket 4.4 17:18:49 13° S 17:23:35 66° E 17:28:54 10° NNE
COSMOS 2428 2.6 17:23:41 51° SSW 17:25:11 81° WNW 17:30:52 10° NNE
Cosmos 1300 4.1 17:23:53 24° SSE 17:25:22 35° ESE 17:28:41 10° NE
Cosmos 371 Rocket 3.9 17:23:01 10° N 17:27:44 57° ENE 17:32:29 10° SSE
CZ-3 R/B 3.6 17:21:56 26° WNW 17:31:37 42° NNW 17:38:53 10° NE
BlueWalker 3 2.5 17:36:38 48° SSE 17:36:58 49° SE 17:40:43 10° ENE
Cosmos 2208 Rocket 4.3 17:35:09 18° SSW 17:39:17 72° ESE 17:44:39 10° NNE
Cosmos 1242 Rocket 4.4 17:38:36 10° NNE 17:40:44 22° E 17:42:53 10° SE
Meteor 2-10 Rocket 3.8 17:37:17 10° S 17:43:12 82° E 17:49:02 10° NNE
ISS -0.7 17:47:03 10° N 17:49:17 16° NE 17:51:32 10° E
Cosmos 1733 Rocket 3.9 17:45:50 10° S 17:50:07 50° E 17:54:22 10° NNE
OAO 2 Rocket 4.5 17:47:42 20° NW 17:50:31 36° NNE 17:55:08 10° ENE
Cosmos 1707 Rocket 4.0 17:46:21 10° N 17:50:44 66° E 17:55:13 10° SSE
Meteor 1-12 Rocket 4.3 17:46:44 10° S 17:52:39 87° E 17:58:36 10° N
SL-14 R/B 3.1 17:49:26 10° NNW 17:53:20 74° W 17:57:16 10° S
CORIOLIS 4.1 17:50:20 10° N 17:55:47 78° WNW 18:01:20 10° SSW
IRIDIUM 104 4.2 17:53:21 10° S 17:58:40 83° W 18:03:55 10° N
Cosmos 1417 Rocket 4.5 17:52:15 10° S 17:58:44 87° W 18:05:04 10° N
Cosmos 2322 4.3 17:57:45 31° W 17:58:52 34° WNW 18:03:58 10° NNW
Cosmos 1346 Rocket 2.8 17:59:44 35° SW 18:01:07 55° W 18:04:54 10° N
Meteor 1-21 4.3 17:56:12 10° N 18:01:50 83° E 18:07:35 10° S
Cosmos 2228 Rocket 3.0 17:57:31 10° N 18:01:59 84° W 18:06:33 10° S
USA 306 3.9 18:00:17 10° NNW 18:02:59 33° NE 18:06:08 10° ESE
COSMO-SKYMED 1 3.7 17:59:49 10° SSE 18:04:05 46° E 18:08:17 10° N
Cosmos 2266 Rocket 3.9 17:59:19 10° N 18:05:24 82° W 18:11:38 10° S
Cosmos 1570 Rocket 4.2 18:04:00 23° SW 18:07:03 47° WNW 18:12:05 10° N
IRIDIUM 114 4.3 18:02:32 10° S 18:07:48 68° W 18:13:00 10° N
Cosmos 1315 Rocket 2.8 18:04:28 10° N 18:08:21 82° E 18:12:20 10° SSE
Cosmos 1503 Rocket 4.1 18:04:12 10° NNW 18:09:29 84° ENE 18:14:53 10° SSE
Meteor 1-23 Rocket 4.3 18:04:16 10° NNW 18:09:44 54° WSW 18:15:17 10° S
Meteor 1-15 Rocket 4.4 18:05:40 10° SSW 18:11:12 48° W 18:16:35 10° NNW
NOSS 0 Rocket 4.1 18:07:22 17° SW 18:12:00 53° WNW 18:17:57 10° N
AQUARIUS 4.1 18:08:02 10° N 18:12:29 68° W 18:17:00 10° SSW
IGS 5A 4.3 18:08:37 10° NNE 18:12:34 50° ESE 18:16:35 10° S
Helios 1B rocket 3.2 18:12:11 10° NNE 18:16:00 51° ESE 18:19:52 10° S
USA 276 3.7 18:17:31 15° S 18:17:31 15° S 18:18:28 10° SSE
IRIDIUM 103 4.4 18:11:44 10° SSW 18:16:55 55° W 18:22:01 10° NNW
ADEOS Rocket 3.0 18:15:22 10° NNE 18:21:01 84° ESE 18:27:14 10° SSW
CZ-4B R/B 3.9 18:19:17 10° NNE 18:23:33 90° SW 18:27:44 10° SSW
CENTAUR R/B 3.1 18:16:37 10° NW 18:24:47 52° SW 18:31:33 10° SSE
Cosmos 1818 3.7 18:20:52 10° SSW 18:26:15 76° ESE 18:31:38 10° NE
Cosmos 1953 3.2 18:24:11 10° S 18:28:03 50° E 18:31:51 10° NNE
Cosmos 1758 3.9 18:25:49 14° SSW 18:28:40 33° W 18:32:10 10° NNW
Cosmos 1486 Rocket 4.4 18:26:10 10° NW 18:31:08 40° WSW 18:36:09 10° S
Cosmos 332 Rocket 3.8 18:27:28 10° NNW 18:32:16 85° ENE 18:37:09 10° SSE
Cosmos 1461 4.3 18:32:35 18° WSW 18:33:50 20° SW 18:37:03 10° S
Intercosmos 25 Rocket 4.0 18:30:20 10° SSW 18:34:30 72° W 18:41:07 10° N
Cosmos 304 Rocket 4.3 18:30:59 10° NW 18:35:26 37° WSW 18:39:57 10° S
CZ-2C R/B 2.9 18:38:47 10° N 18:42:18 46° W 18:45:50 10° SSW
Cosmos 2263 Rocket 2.9 18:42:44 10° N 18:48:19 60° ENE 18:53:59 10° SSE
S3M 4.4 18:43:00 10° SSW 18:48:58 42° W 18:54:56 10° NNW
Cosmos 2227 Rocket 2.4 18:45:28 10° NW 18:50:58 51° WSW 18:56:33 10° SSE
SKYMED 2 3.8 18:47:45 10° S 18:52:03 51° WSW 18:56:17 10° NNW
Cosmos 2237 Rocket 2.8 18:47:06 10° SW 18:52:25 39° WNW 18:57:41 10° N
SMAP 4.5 18:51:16 10° NW 18:54:33 19° W 18:57:51 10° SW
NOSS 3-2 (A) 4.4 18:45:48 10° NW 18:54:33 53° SW 19:02:14 10° SSE
FALCON 9 R/B 4.4 18:38:37 10° WNW 18:58:30 36° NNW 19:04:09 10° NE
Cosmos 1655 Rocket 4.3 18:53:13 10° NNW 18:59:14 46° WSW 19:05:23 10° S
Meteor 1-31 Rocket 3.6 18:56:02 10° NNW 18:59:20 29° W 19:02:41 10° SW
Cosmos 1300 4.5 18:58:09 10° WSW 18:59:37 12° W 19:01:05 10° WNW
Okean 3 4.3 18:56:49 10° NW 19:00:21 27° WSW 19:03:57 10° SSW
Resurs 01 Rocket 4.3 19:01:37 10° ENE 19:04:39 18° ESE 19:07:42 10° SSE
CZ-4C R/B 4.4 19:01:26 10° WSW 19:05:28 15° SSW 19:09:08 10° S
USA 307 0.5 19:06:41 13° SE 19:06:41 13° SE 19:06:46 10° SE
Cosmos 2315 Rocket 4.4 19:00:37 10° SSW 19:06:34 45° W 19:12:31 10° NNW
Aureole 3 4.0 19:04:39 10° NW 19:07:15 21° WSW 19:09:43 10° SSW
Meteor PRIRODA 4.5 19:04:02 10° NNE 19:07:20 48° ESE 19:10:41 10° S
Cosmos 2297 Rocket 3.4 19:03:05 10° WNW 19:07:24 22° SW 19:11:44 10° S
Cosmos 990 Rocket 4.1 19:02:25 10° NNW 19:07:41 89° WSW 19:13:00 10° SSE
SL-16 R/B 2.4 19:02:24 10° SSW 19:08:09 82° ESE 19:13:51 10° NNE
CZ-4 R/B 3.2 19:06:14 10° NE 19:09:33 29° ESE 19:12:58 10° S
Cosmos 2082 3.9 19:04:27 10° NNW 19:10:12 83° ENE 19:16:01 10° SSE
